This is the latest recevied weather packets stored in our database for station/object DB0WUN-13. If no packets are shown the sender has not sent any weather packets the latest 1 day(s).
| Time | Temp. | Humidity | Pressure | Rain* | Wind** | Luminosity | Snow |
|---|---|---|---|---|---|---|---|
| 1778082595 | 16.11° C | 69% | 1006.4 hPa | 0 mm | 0 m/s | 91 W/m² | - |
| 1778082536 | 16.11° C | 69% | 1006.5 hPa | 0 mm | 0 m/s | 91 W/m² | - |
| 1778082475 | 16.11° C | 69% | 1006.4 hPa | 0 mm | 0 m/s | 91 W/m² | - |
| 1778082424 | 16.11° C | 70% | 1006.4 hPa | 0 mm | 0 m/s | 90 W/m² | - |
| 1778082357 | 16.11° C | 69% | 1006.4 hPa | 0 mm | 0 m/s | 86 W/m² | - |
| 1778082294 | 16.11° C | 68% | 1006.4 hPa | 0 mm | 0.45 m/s, 350° | 84 W/m² | - |
| 1778082237 | 16.11° C | 68% | 1006.5 hPa | 0 mm | 0.45 m/s, 350° | 81 W/m² | - |
| 1778082176 | 16.11° C | 69% | 1006.4 hPa | 0 mm | 0.45 m/s, 350° | 76 W/m² | - |
| 1778082117 | 16.11° C | 68% | 1006.4 hPa | 0 mm | 0.45 m/s, 350° | 74 W/m² | - |
| 1778082054 | 16.11° C | 68% | 1006.4 hPa | 0 mm | 0.45 m/s, 350° | 74 W/m² | - |
| 1778081993 | 16.11° C | 68% | 1006.5 hPa | 0 mm | 0.45 m/s, 350° | 72 W/m² | - |
| 1778081930 | 16.11° C | 67% | 1006.5 hPa | 0 mm | 0.45 m/s, 350° | 74 W/m² | - |
| 1778081867 | 16.11° C | 68% | 1006.5 hPa | 0 mm | 0.45 m/s, 350° | 76 W/m² | - |
| 1778081802 | 16.11° C | 68% | 1006.5 hPa | 0 mm | 0.45 m/s, 350° | 77 W/m² | - |
| 1778081744 | 16.11° C | 67% | 1006.4 hPa | 0 mm | 0.45 m/s, 317° | 81 W/m² | - |
| 1778081676 | 16.11° C | 68% | 1006.5 hPa | 0 mm | 0.45 m/s, 328° | 83 W/m² | - |
| 1778081620 | 16.11° C | 69% | 1006.5 hPa | 0 mm | 0.45 m/s, 327° | 86 W/m² | - |
| 1778081559 | 16.11° C | 68% | 1006.5 hPa | 0 mm | 0.45 m/s, 345° | 97 W/m² | - |
| 1778081501 | 16.11° C | 67% | 1006.5 hPa | 0 mm | 0.89 m/s, 345° | 100 W/m² | - |
| 1778081438 | 16.11° C | 67% | 1006.4 hPa | 0 mm | 0.89 m/s, 345° | 105 W/m² | - |
| 1778081377 | 16.11° C | 68% | 1006.4 hPa | 0 mm | 0.89 m/s, 37° | 111 W/m² | - |
| 1778081319 | 16.11° C | 68% | 1006.4 hPa | 0 mm | 0.89 m/s, 14° | 116 W/m² | - |
| 1778081252 | 16.11° C | 67% | 1006.4 hPa | 0 mm | 0.89 m/s, 331° | 130 W/m² | - |
| 1778081193 | 16.67° C | 67% | 1006.4 hPa | 0 mm | 0.89 m/s, 331° | 139 W/m² | - |
| 1778081133 | 16.11° C | 67% | 1006.5 hPa | 0 mm | 0.89 m/s, 327° | 146 W/m² | - |
* Rain latest hour (hover to see other rain measurements)
** Current wind speed in m/s (hover to see current wind gust speed)